Temperature
19 19 20 20 16 14 16 17 19 20 21 23 23 23 22 21 21 21 21 20 20 20 19 17 16 15 15 15 15 14 14 14 14 13 12 12 12 12 12 12 12 12 13 13 13 13 13 13 13
18 19 19 19 15 15 16 18 20 21 22 23 24 23 22 20 21 21 21 21 20 20 20 18 16 15 15 15 15 15 15 15 14 13 12 12 12 12 12 12 13 13 14 14 14 14 14 13 13
18 18 18 15 15 15 17 19 20 22 23 23 23 23 21 21 20 21 21 21 20 20 20 18 16 16 15 15 15 15 15 15 15 14 13 12 12 12 12 13 13 14 14 15 15 15 14 14 13
17 18 17 14 15 15 17 18 19 21 23 23 23 21 21 21 21 21 21 21 20 20 20 19 17 16 15 15 15 15 15 15 15 15 14 13 12 12 13 13 13 13 14 14 14 14 14 14 13
17 17 15 14 15 16 17 19 20 21 22 22 22 20 20 21 21 21 21 20 20 20 19 19 18 17 16 15 15 15 15 15 15 15 14 13 13 13 13 13 13 13 14 14 14 14 14 14 14
16 14 13 13 15 16 17 20 21 21 21 22 22 20 20 20 21 20 20 20 19 20 19 19 18 17 16 16 15 15 15 15 15 15 14 14 13 13 13 13 13 14 14 14 14 14 14 14 14
15 12 12 13 14 15 18 21 20 20 21 22 22 20 20 21 21 20 20 19 19 19 19 19 18 18 17 16 16 15 15 15 15 15 15 14 14 14 13 14 14 14 14 14 14 14 14 14 14
15 12 13 13 14 15 18 20 21 21 21 22 22 20 20 21 21 20 20 19 19 19 19 19 19 18 18 17 16 16 15 15 15 15 15 15 14 14 13 14 14 14 14 14 14 14 14 14 14
14 11 12 13 14 15 19 20 21 21 22 22 22 21 21 21 21 20 20 19 19 19 19 19 19 18 18 17 16 16 16 15 15 15 15 14 14 14 14 14 14 14 14 14 14 14 14 14 14
13 12 13 14 15 16 18 19 20 20 20 21 21 21 21 21 21 20 20 20 20 20 20 19 19 18 18 17 17 16 16 16 15 15 14 14 14 14 14 13 13 14 14 14 14 13 13 13 13
12 11 14 15 17 17 17 18 19 19 19 20 21 21 21 21 21 21 21 21 21 21 20 20 19 18 18 17 17 16 16 15 15 14 14 14 13 13 13 13 13 13 13 13 13 13 13 13 13
11 12 14 15 17 17 17 18 18 19 20 21 20 20 20 20 21 21 21 21 21 21 20 20 19 19 18 17 16 16 15 15 14 14 14 13 13 13 13 13 13 13 13 12 12 12 12 12 12
11 12 14 14 15 16 17 16 17 18 20 20 20 20 21 21 21 21 21 21 21 21 21 20 19 19 18 17 16 15 15 15 14 14 14 13 13 13 13 13 12 12 12 12 12 12 12 12 12
11 12 13 14 14 15 15 16 16 17 19 20 20 20 21 21 21 21 21 21 21 21 21 20 19 18 17 17 16 15 15 14 14 14 13 13 13 13 13 12 12 12 12 12 12 12 12 12 12
11 10 11 12 13 15 15 15 15 17 19 19 19 20 20 20 20 20 21 21 21 21 21 20 19 18 17 16 16 15 14 14 14 14 13 13 13 13 12 12 12 12 12 11 12 12 12 12 12
10 9 10 12 13 14 14 14 15 18 18 18 19 20 20 20 20 20 20 20 20 20 20 19 18 17 17 16 15 15 14 14 14 14 13 13 13 12 12 12 12 11 11 12 12 12 12 12 11
9 8 9 11 13 14 14 13 15 18 18 18 19 19 19 20 19 20 20 20 20 19 18 18 18 17 16 16 15 15 14 14 14 14 13 13 12 12 12 11 11 11 11 11 11 11 11 10 10
8 8 9 10 12 13 13 13 14 17 17 17 19 19 19 19 19 19 19 19 19 18 18 17 17 17 16 16 15 14 14 14 13 13 13 12 12 12 11 12 11 11 11 11 10 10 9 9 9
8 8 8 9 11 12 13 13 14 15 16 16 17 18 18 18 18 18 18 18 18 17 17 17 17 16 16 15 15 14 14 13 13 13 12 12 12 11 11 11 11 11 10 10 9 8 8 8 7
7 7 8 9 11 12 11 12 14 15 15 16 17 17 18 17 17 17 17 17 17 17 16 16 16 15 15 15 14 14 13 13 12 12 12 12 11 11 11 11 10 10 9 8 8 7 7 6 6
7 7 7 8 10 11 11 11 13 14 15 16 17 18 18 17 17 17 16 16 16 16 15 15 14 14 14 14 14 13 13 12 12 11 11 11 11 11 10 10 10 9 8 7 6 6 6 5 5
7 8 9 9 9 9 11 11 12 14 14 15 16 17 17 17 17 16 15 15 15 15 14 14 13 13 13 13 13 13 13 12 12 11 11 11 10 10 10 9 9 8 7 6 5 5 5 4 4
7 9 9 9 8 8 9 9 11 12 14 15 15 16 16 16 16 15 14 14 14 14 13 13 13 13 13 13 13 13 12 12 12 11 11 10 10 9 9 8 8 7 6 5 5 4 4 4 3
9 9 8 8 8 8 9 9 11 12 14 15 15 16 15 15 14 14 13 13 12 12 12 12 12 12 12 12 12 12 12 12 11 11 10 9 9 9 8 8 7 6 5 4 4 4 3 3 3
8 7 7 7 7 8 10 10 11 13 14 15 15 15 14 13 12 13 12 12 12 12 12 12 12 12 12 12 12 12 12 11 11 10 9 9 8 8 7 7 6 5 4 4 3 3 3 3 2
7 7 7 7 7 9 10 11 12 13 14 15 16 14 12 11 11 11 12 11 11 11 12 12 12 12 11 11 11 11 11 10 9 9 8 8 8 7 7 6 5 4 4 3 3 3 2 2 1
7 7 8 7 8 9 10 11 12 13 13 13 12 12 10 10 10 10 11 11 11 11 11 12 12 12 11 11 11 10 10 9 9 8 8 7 7 6 6 5 4 3 3 3 2 2 1 1 1
8 8 7 6 8 9 10 11 12 13 12 11 11 10 10 9 9 10 10 10 10 11 11 11 12 11 11 10 10 10 9 8 8 7 7 7 6 6 5 4 3 3 2 2 1 1 0 0 -0
7 7 7 7 8 9 10 12 14 14 13 12 11 10 9 9 8 9 10 10 10 10 11 11 11 11 10 10 9 9 8 8 7 7 6 6 5 5 4 3 3 2 2 1 0 -0 -1 -1 -2
8 8 8 8 8 8 9 12 14 13 13 12 11 10 9 9 8 9 10 9 10 10 10 10 10 10 10 9 8 8 7 7 6 6 6 5 4 4 3 2 2 1 1 0 -1 -1 -2 -2 -3
Wind_Speed
18 15 3 4 6 4 4 6 3 5 6 4 3 4 7 4 3 3 1 8 14 16 17 21 21 20 19 18 16 15 13 12 11 10 10 9 9 9 9 8 7 6 4 4 3 4 5 5 5
12 6 6 5 4 2 6 5 3 3 5 6 2 6 7 4 2 4 4 8 16 16 17 19 20 20 19 18 16 15 13 11 10 10 9 9 9 9 8 8 7 5 4 3 3 3 3 3 3
9 3 4 4 2 5 6 3 4 4 5 4 4 6 6 3 3 4 6 12 12 12 16 18 21 20 19 18 16 15 13 11 10 9 9 8 8 9 9 8 7 5 4 3 2 2 1 1 1
3 5 5 2 8 8 6 8 8 5 5 5 4 5 3 1 5 5 8 13 13 11 14 18 21 20 19 18 17 15 13 11 10 9 8 6 6 8 10 9 8 6 4 3 1 0 1 2 4
4 4 1 4 9 8 6 8 9 4 2 5 3 4 1 5 2 7 10 12 13 11 12 18 21 20 19 18 17 15 13 11 10 9 8 5 4 7 10 10 8 6 4 2 1 2 3 4 5
3 4 4 7 11 9 7 7 5 4 1 4 4 4 2 2 5 7 9 11 12 13 11 16 20 20 19 18 17 16 14 12 10 9 8 6 5 8 10 10 9 7 5 4 3 4 5 6 7
5 5 7 8 8 10 8 5 5 5 3 1 2 4 3 4 7 8 8 10 10 11 9 10 15 17 19 18 18 16 14 12 11 10 8 7 6 8 9 10 9 8 7 6 5 6 7 8 9
5 5 7 7 8 10 6 4 5 6 5 4 4 6 6 7 6 7 7 9 10 10 11 10 11 13 14 16 17 17 15 14 12 11 10 9 8 8 8 9 9 9 8 8 8 8 9 10 11
3 4 9 9 9 8 3 3 5 2 3 2 2 5 6 4 5 6 5 5 7 9 9 11 10 10 13 14 16 16 16 15 13 11 11 10 8 7 7 9 11 11 11 10 10 10 10 11 12
6 10 11 7 7 7 4 5 6 2 1 1 1 2 2 6 6 8 8 9 11 12 12 10 12 11 10 12 12 12 13 13 12 11 10 9 8 7 8 11 14 14 13 12 11 11 11 11 10
7 8 6 8 9 9 8 7 5 5 6 6 5 3 3 6 8 9 10 10 12 12 13 13 13 12 10 7 8 8 9 10 11 11 11 9 7 5 5 5 7 9 9 8 8 8 8 7 7
6 6 5 7 9 10 9 6 7 8 10 8 7 5 5 8 10 11 11 10 9 9 12 14 14 12 11 8 7 7 6 6 6 9 10 7 3 2 2 2 2 3 4 4 4 4 5 6 6
8 8 11 11 11 12 13 12 10 12 11 9 8 6 6 8 9 8 7 7 8 12 13 13 14 14 12 10 8 7 6 5 7 7 8 8 4 3 2 2 2 2 2 2 2 3 3 4 5
6 7 10 12 14 12 14 16 11 12 10 10 8 9 10 10 9 7 5 4 4 7 11 10 11 12 12 10 8 7 5 6 6 5 7 9 7 4 4 4 4 4 6 6 5 5 5 5 5
5 8 10 10 10 8 10 18 16 12 10 10 10 11 11 10 9 9 8 6 5 4 6 8 9 10 11 10 8 6 4 6 5 7 9 11 10 9 6 6 6 5 8 8 7 7 5 6 7
5 5 7 6 7 9 10 22 11 9 11 11 11 12 11 10 10 9 8 7 6 5 5 6 7 9 10 8 8 7 7 8 8 10 12 14 14 13 8 7 6 7 9 6 5 6 5 6 6
4 7 8 7 7 8 12 13 8 11 10 11 12 12 11 10 9 8 8 7 6 5 6 6 8 10 11 12 11 11 9 9 9 11 11 13 14 14 10 6 5 8 6 6 5 5 4 5 7
7 7 7 7 5 10 17 19 10 9 10 12 12 11 9 10 11 8 7 6 6 6 6 8 10 13 15 13 12 11 11 9 9 10 11 13 13 14 11 6 7 7 6 6 5 5 5 3 6
7 8 10 7 7 8 16 21 16 14 13 13 13 11 10 10 7 6 6 7 7 7 8 9 12 12 13 11 9 9 7 7 8 8 12 14 14 14 10 6 6 6 6 6 6 5 5 4 5
12 17 16 11 9 10 14 21 16 17 16 15 17 15 11 9 8 7 6 6 7 8 10 11 12 10 10 9 8 7 7 7 7 6 10 14 14 12 10 7 6 6 6 7 7 6 4 4 4
15 16 13 11 13 13 14 16 18 16 15 16 17 16 13 17 16 11 9 7 9 10 11 12 11 12 13 13 13 12 8 6 5 7 6 8 12 12 11 8 6 6 6 5 5 5 4 4 3
16 10 11 12 9 7 7 10 10 13 17 19 19 16 15 15 14 12 11 10 10 10 10 12 13 13 12 12 13 14 10 7 5 5 6 7 10 11 11 9 7 5 5 5 4 4 3 3 3
8 5 9 10 10 11 13 12 10 9 17 20 20 17 17 18 18 17 14 12 10 11 11 12 13 12 10 10 11 12 10 8 7 7 8 7 6 8 8 8 6 5 4 4 4 4 4 3 2
8 5 8 8 7 14 19 13 10 10 16 13 17 17 18 18 16 14 11 12 11 11 11 12 13 12 11 11 11 12 13 11 10 8 7 5 4 5 6 6 5 4 4 4 4 4 5 4 4
12 8 6 7 9 11 10 12 13 12 13 17 17 17 19 21 20 19 17 15 14 13 13 12 14 13 11 12 11 11 11 11 10 8 7 5 3 3 3 3 3 3 3 4 4 4 5 4 5
17 16 10 7 7 6 9 14 11 13 15 13 12 15 21 22 21 20 19 17 16 15 14 14 15 13 12 13 11 10 10 8 7 8 6 5 3 2 2 3 3 4 5 5 4 4 5 5 6
9 15 12 6 7 6 9 8 8 9 9 8 13 19 22 22 20 19 16 15 15 15 14 15 16 14 12 12 12 10 10 9 8 7 6 4 3 2 3 3 4 4 5 5 5 4 6 6 6
11 8 7 8 6 7 8 9 9 10 10 11 18 21 20 18 18 17 16 15 12 12 12 12 14 14 12 11 10 10 9 9 8 7 6 5 3 3 3 4 5 5 6 6 6 6 7 7 6
14 13 9 9 8 5 5 8 9 16 16 19 19 20 22 22 20 18 15 13 13 13 13 13 13 13 12 11 10 10 8 8 7 6 5 4 3 3 4 5 5 6 7 7 7 8 8 8 7
16 15 14 9 8 7 6 8 5 11 15 18 18 17 17 18 17 16 16 15 14 14 13 12 12 12 11 10 10 9 8 8 7 5 4 3 3 3 4 5 6 7 8 8 8 9 9 8 8
Wind_Direction
317 327 7 44 44 37 274 264 274 329 314 280 252 102 108 119 177 189 135 142 147 154 166 165 166 163 160 156 153 150 147 145 144 142 141 138 136 133 123 117 110 102 92 81 68 60 65 74 92
317 337 32 51 78 318 271 264 265 268 276 288 326 73 86 81 118 131 129 151 149 157 165 168 169 167 164 161 159 156 154 154 153 152 151 150 148 145 136 132 122 111 103 94 83 74 73 76 83
320 17 63 67 167 207 239 265 287 286 302 327 15 68 95 105 154 185 169 156 147 156 165 171 170 169 167 166 164 162 161 160 160 160 158 156 160 160 155 148 139 129 119 109 94 75 57 2 321
14 28 53 101 243 234 237 279 279 291 336 355 30 65 62 39 183 186 148 153 150 159 165 172 172 172 171 170 169 168 166 166 166 168 168 169 171 177 170 159 152 145 135 127 116 27 326 306 298
60 79 63 247 251 253 244 257 249 234 317 343 22 102 69 336 127 151 146 154 158 163 170 173 175 175 174 174 173 172 171 170 169 172 176 184 187 183 170 168 166 165 166 175 227 285 290 287 286
63 91 167 231 252 270 283 272 243 199 56 3 49 112 219 268 153 177 160 158 164 164 168 175 177 176 176 177 177 175 175 174 173 174 174 166 153 161 166 175 180 188 202 226 256 275 282 284 285
146 150 203 219 250 272 267 268 236 170 133 197 108 128 259 255 199 187 158 149 158 163 163 171 176 176 177 177 177 177 177 177 176 176 174 164 156 165 177 188 198 210 227 244 258 270 276 280 281
168 162 213 213 229 257 260 253 239 186 184 198 128 146 224 234 204 174 147 142 156 165 169 171 173 175 176 177 178 180 180 180 180 182 179 176 180 190 202 210 218 229 242 251 260 268 273 277 280
136 180 217 207 207 238 278 293 286 236 155 147 122 174 221 183 143 146 139 141 166 180 181 177 175 177 177 177 183 183 184 186 187 190 193 193 201 217 234 234 234 239 246 252 261 269 274 277 279
182 221 223 207 208 233 280 294 284 269 202 216 18 16 94 132 160 180 187 187 189 193 194 185 183 183 179 183 183 185 188 192 194 198 204 206 211 226 244 242 236 238 244 254 267 276 282 283 282
206 225 219 228 242 257 271 275 267 218 223 219 204 195 166 177 194 207 213 208 206 197 192 191 188 186 181 182 176 184 191 195 202 206 212 213 216 235 246 242 243 248 258 268 281 291 295 292 288
257 251 236 234 241 254 260 259 261 233 225 220 210 210 201 209 216 218 219 221 217 205 197 191 190 186 184 180 179 183 188 195 202 209 213 202 185 190 200 208 248 263 277 288 295 302 312 321 320
261 271 274 274 270 263 268 257 251 251 244 244 253 260 258 252 244 233 225 224 213 207 204 189 185 186 183 179 181 182 188 193 198 195 190 176 154 153 133 93 56 21 7 2 3 358 1 2 359
266 274 270 268 269 268 269 270 252 245 239 242 254 265 265 258 248 232 209 190 189 205 204 188 179 180 175 175 175 177 180 175 164 153 149 144 129 112 94 71 54 41 40 44 44 31 26 18 7
306 298 287 262 258 259 275 269 253 240 233 237 247 255 259 255 240 219 199 178 162 160 175 173 172 167 165 166 163 151 137 130 116 107 104 103 99 90 81 69 55 42 43 45 44 28 28 21 8
307 283 265 255 231 232 233 256 255 241 224 238 249 256 258 246 226 214 192 173 161 140 135 150 154 147 146 135 120 108 101 97 94 92 87 85 85 85 78 69 57 50 48 39 40 24 18 14 359
254 254 253 263 231 222 226 253 235 234 225 240 252 257 254 237 215 206 189 169 162 151 144 131 128 128 121 110 103 97 92 90 91 88 85 82 81 81 80 70 56 55 50 36 32 29 22 8 351
223 235 251 240 256 228 243 253 250 253 234 236 249 256 246 218 206 194 176 148 135 133 130 123 119 120 118 111 104 97 88 85 83 83 83 80 77 76 75 66 50 50 48 34 23 17 13 9 344
267 269 274 277 297 277 259 260 253 245 246 245 249 245 230 218 208 185 159 134 120 116 116 120 124 126 124 122 116 110 102 95 86 80 77 76 73 69 65 60 48 45 50 39 25 10 5 355 349
253 265 272 288 282 286 281 273 258 240 236 235 241 240 216 195 188 186 162 141 133 124 119 120 124 120 119 117 112 110 112 98 88 80 71 70 68 65 65 59 56 48 46 36 29 24 9 348 5
242 244 255 269 301 292 284 276 257 246 236 235 237 236 209 188 185 180 163 149 136 130 129 128 123 119 119 118 115 113 103 89 80 75 70 65 70 67 64 61 60 51 48 34 21 25 25 347 333
248 237 244 255 260 267 263 279 258 238 236 236 236 229 210 190 178 169 159 152 145 135 126 125 124 123 122 123 129 130 127 121 115 108 93 73 69 67 62 59 58 49 41 29 7 22 2 353 339
237 230 242 246 250 264 259 270 265 232 234 232 229 220 203 185 173 167 160 152 141 132 126 124 121 118 114 112 119 117 113 112 113 105 95 79 63 60 59 57 50 38 26 15 4 355 350 338 324
236 257 258 242 245 251 240 235 263 225 226 224 222 212 193 174 162 151 141 137 131 126 122 123 120 114 112 111 110 118 121 123 120 114 107 90 72 52 44 50 41 27 11 356 346 339 339 330 324
211 220 227 215 215 241 205 214 247 237 233 224 218 201 178 164 157 152 149 146 141 134 129 125 123 118 115 112 109 114 118 118 120 121 116 109 90 63 34 37 28 11 349 343 344 339 332 325 327
203 205 213 208 221 239 189 223 243 238 249 241 216 178 163 160 159 157 153 149 145 139 133 129 125 122 118 115 111 108 108 107 108 109 112 111 115 112 58 39 19 2 354 350 344 330 321 322 315
195 207 224 270 288 245 219 237 264 237 239 209 168 158 163 160 157 153 149 147 145 140 136 133 129 124 120 117 114 108 106 106 108 107 102 102 98 94 54 29 9 355 349 341 335 319 310 309 305
208 177 174 207 245 243 228 220 218 204 199 170 161 162 159 154 151 150 149 146 141 134 128 124 125 125 122 118 116 114 108 109 111 108 105 103 88 59 34 11 358 349 339 329 321 311 303 304 304
195 194 191 197 233 259 229 238 214 195 182 173 171 165 160 158 156 154 150 144 136 131 129 127 125 124 120 115 111 111 109 110 108 106 107 103 76 41 18 357 346 336 323 316 310 303 303 302 299
196 200 193 197 211 224 268 269 278 198 175 170 166 162 158 154 152 150 148 143 141 139 136 133 130 127 123 119 114 111 111 110 107 105 98 83 53 19 358 345 334 323 317 309 304 303 309 300 294
Height
1520 1518 1516 1515 1517 1526 1524 1514 1505 1501 1496 1493 1490 1490 1492 1496 1499 1503 1499 1498 1499 1499 1500 1501 1503 1504 1505 1505 1506 1505 1505 1505 1504 1504 1504 1505 1505 1506 1506 1506 1506 1506 1505 1505 1505 1505 1506 1506 1506
1518 1518 1517 1515 1525 1533 1525 1510 1503 1498 1495 1492 1490 1489 1491 1495 1496 1496 1495 1497 1498 1499 1499 1501 1502 1504 1504 1505 1505 1505 1505 1504 1504 1503 1504 1505 1505 1506 1506 1506 1506 1506 1505 1504 1504 1504 1505 1505 1505
1518 1517 1517 1518 1525 1528 1517 1505 1501 1496 1494 1492 1490 1490 1492 1495 1496 1496 1496 1497 1498 1498 1499 1500 1502 1503 1504 1504 1504 1504 1504 1504 1503 1503 1503 1504 1505 1505 1506 1506 1506 1505 1505 1504 1504 1504 1504 1504 1504
1517 1517 1517 1522 1522 1515 1509 1504 1501 1496 1493 1492 1491 1492 1494 1496 1496 1496 1496 1496 1498 1498 1499 1500 1501 1502 1503 1503 1504 1504 1504 1504 1503 1503 1503 1504 1505 1505 1505 1506 1506 1505 1504 1504 1503 1503 1503 1503 1503
1516 1516 1520 1523 1518 1508 1503 1500 1499 1496 1493 1492 1492 1493 1494 1495 1496 1496 1496 1496 1497 1498 1499 1499 1501 1502 1502 1503 1503 1503 1503 1503 1503 1503 1503 1504 1504 1505 1505 1506 1506 1505 1504 1504 1503 1503 1503 1502 1502
1514 1515 1525 1525 1515 1504 1500 1497 1496 1493 1492 1492 1492 1493 1493 1494 1495 1495 1495 1496 1497 1498 1498 1499 1500 1501 1502 1502 1503 1503 1503 1503 1503 1503 1503 1504 1504 1505 1505 1506 1505 1505 1505 1504 1504 1503 1503 1503 1502
1512 1516 1520 1517 1513 1506 1498 1495 1495 1491 1491 1492 1492 1493 1493 1494 1494 1495 1495 1495 1496 1497 1498 1498 1499 1500 1501 1501 1502 1502 1502 1502 1502 1502 1503 1503 1504 1505 1505 1505 1505 1505 1505 1504 1504 1504 1503 1503 1502
1508 1511 1512 1512 1510 1503 1495 1494 1492 1490 1489 1490 1491 1492 1493 1493 1493 1494 1495 1495 1496 1496 1497 1498 1498 1498 1499 1500 1501 1501 1502 1502 1502 1502 1502 1503 1503 1504 1505 1505 1505 1505 1505 1505 1504 1504 1503 1503 1502
1506 1511 1508 1505 1503 1498 1493 1492 1491 1489 1488 1489 1489 1491 1492 1492 1492 1493 1494 1494 1494 1495 1496 1496 1497 1497 1498 1499 1500 1500 1501 1501 1501 1502 1502 1503 1503 1504 1505 1505 1505 1505 1505 1504 1504 1503 1503 1502 1501
1502 1503 1496 1494 1493 1492 1491 1492 1491 1490 1488 1488 1488 1489 1490 1491 1492 1492 1492 1492 1492 1492 1493 1494 1495 1496 1497 1497 1498 1499 1500 1500 1501 1502 1502 1503 1503 1504 1505 1505 1505 1504 1504 1504 1503 1502 1502 1500 1499
1495 1493 1490 1490 1490 1490 1490 1491 1490 1489 1488 1486 1487 1488 1489 1490 1490 1490 1490 1490 1490 1490 1491 1492 1493 1494 1495 1496 1497 1498 1499 1500 1500 1501 1502 1503 1503 1504 1504 1504 1504 1504 1503 1503 1502 1501 1500 1499 1497
1492 1488 1488 1487 1488 1488 1488 1488 1488 1486 1485 1484 1484 1485 1486 1487 1488 1488 1488 1488 1488 1488 1488 1489 1490 1491 1492 1494 1495 1497 1498 1499 1500 1501 1501 1502 1503 1503 1503 1504 1504 1503 1502 1501 1500 1499 1498 1496 1495
1490 1487 1486 1486 1486 1486 1486 1484 1484 1482 1482 1482 1482 1482 1482 1483 1484 1484 1484 1484 1484 1484 1484 1485 1487 1488 1490 1492 1494 1496 1497 1498 1499 1500 1501 1502 1502 1503 1503 1503 1503 1502 1501 1499 1498 1497 1496 1494 1493
1487 1485 1484 1483 1483 1483 1483 1479 1479 1475 1478 1478 1478 1478 1478 1479 1479 1480 1480 1480 1479 1480 1481 1482 1484 1486 1488 1489 1492 1494 1496 1497 1498 1499 1500 1501 1502 1502 1502 1502 1501 1500 1499 1498 1497 1495 1493 1492 1490
1487 1486 1482 1480 1480 1480 1482 1475 1470 1472 1473 1472 1472 1473 1473 1474 1474 1475 1475 1475 1475 1475 1476 1478 1481 1483 1485 1488 1491 1493 1494 1496 1497 1498 1499 1500 1501 1501 1501 1501 1500 1499 1498 1497 1495 1493 1491 1489 1487
1487 1486 1484 1476 1476 1476 1483 1470 1465 1466 1467 1466 1466 1467 1468 1468 1469 1470 1471 1471 1471 1472 1472 1474 1477 1480 1483 1486 1489 1490 1492 1494 1495 1497 1498 1499 1499 1500 1500 1499 1499 1498 1497 1495 1493 1491 1488 1485 1482
1488 1487 1483 1477 1471 1471 1473 1464 1461 1462 1462 1461 1462 1462 1462 1463 1464 1465 1466 1466 1467 1468 1469 1471 1473 1477 1480 1483 1485 1488 1490 1492 1494 1495 1497 1498 1498 1499 1499 1498 1497 1496 1495 1493 1490 1487 1484 1481 1478
1486 1485 1480 1477 1470 1469 1467 1459 1459 1458 1457 1456 1456 1457 1457 1457 1458 1460 1461 1462 1463 1463 1465 1467 1470 1473 1476 1479 1482 1486 1489 1491 1493 1494 1495 1496 1497 1498 1498 1497 1496 1494 1492 1490 1487 1484 1480 1477 1473
1482 1481 1481 1477 1472 1470 1463 1457 1454 1454 1453 1452 1451 1452 1453 1453 1455 1456 1457 1458 1459 1460 1461 1463 1465 1468 1471 1475 1479 1483 1487 1490 1491 1493 1494 1495 1496 1497 1496 1495 1494 1492 1489 1486 1483 1480 1477 1474 1469
1482 1481 1479 1476 1472 1469 1464 1454 1448 1445 1444 1445 1445 1446 1447 1449 1451 1452 1453 1454 1456 1456 1458 1460 1462 1466 1470 1474 1478 1482 1485 1488 1490 1492 1493 1494 1495 1495 1495 1493 1492 1489 1486 1483 1480 1477 1474 1471 1467
1477 1479 1479 1479 1474 1467 1465 1452 1442 1436 1436 1437 1437 1438 1440 1442 1444 1447 1449 1451 1452 1454 1456 1458 1461 1465 1469 1473 1477 1481 1484 1486 1489 1491 1492 1493 1494 1494 1493 1491 1489 1487 1484 1481 1478 1475 1472 1469 1466
1473 1471 1473 1474 1477 1471 1464 1454 1437 1430 1429 1427 1427 1429 1431 1434 1438 1441 1444 1447 1449 1451 1455 1458 1461 1465 1469 1472 1476 1478 1481 1484 1487 1489 1491 1492 1492 1492 1491 1489 1487 1484 1481 1479 1476 1473 1470 1467 1464
1468 1466 1468 1469 1471 1470 1463 1460 1435 1426 1421 1416 1416 1419 1422 1426 1430 1435 1439 1443 1447 1450 1453 1457 1461 1465 1468 1472 1475 1478 1481 1483 1486 1488 1490 1490 1490 1490 1488 1486 1484 1481 1479 1476 1474 1471 1468 1465 1461
1463 1466 1465 1465 1468 1462 1449 1454 1431 1418 1408 1405 1405 1408 1412 1418 1424 1430 1436 1441 1444 1448 1452 1456 1460 1463 1468 1471 1475 1478 1480 1483 1485 1487 1488 1489 1488 1487 1486 1484 1481 1479 1476 1474 1471 1468 1465 1462 1459
1462 1467 1466 1463 1460 1448 1435 1439 1419 1404 1397 1395 1396 1398 1404 1410 1417 1425 1431 1437 1441 1445 1450 1454 1458 1462 1467 1471 1474 1478 1480 1482 1484 1485 1486 1487 1486 1485 1483 1481 1479 1476 1474 1471 1468 1465 1462 1458 1455
1451 1458 1459 1458 1452 1438 1429 1422 1404 1394 1389 1388 1389 1392 1399 1406 1412 1420 1427 1433 1438 1443 1448 1453 1457 1462 1466 1470 1474 1477 1480 1481 1483 1484 1485 1484 1484 1482 1480 1478 1476 1473 1471 1468 1465 1462 1458 1454 1450
1445 1448 1448 1449 1439 1432 1418 1407 1396 1386 1384 1382 1384 1390 1396 1402 1409 1417 1424 1431 1436 1441 1447 1452 1456 1461 1465 1469 1473 1476 1478 1480 1482 1482 1482 1482 1481 1479 1478 1475 1473 1471 1468 1464 1461 1457 1453 1449 1445
1437 1439 1446 1451 1442 1426 1410 1403 1390 1382 1382 1382 1383 1387 1394 1402 1409 1416 1423 1430 1436 1441 1447 1453 1457 1461 1465 1469 1472 1475 1477 1479 1480 1480 1480 1479 1478 1477 1475 1472 1470 1467 1464 1460 1456 1452 1448 1444 1439
1431 1434 1433 1436 1435 1422 1406 1392 1368 1367 1371 1376 1380 1385 1392 1399 1407 1415 1423 1430 1436 1441 1447 1452 1456 1461 1464 1468 1471 1473 1476 1477 1478 1478 1478 1477 1475 1473 1471 1469 1466 1463 1460 1456 1451 1447 1442 1438 1433
1417 1419 1423 1426 1423 1421 1412 1388 1362 1361 1364 1370 1379 1387 1393 1400 1407 1415 1422 1429 1435 1440 1446 1451 1455 1460 1463 1467 1470 1472 1474 1476 1476 1476 1475 1474 1472 1470 1468 1466 1463 1459 1455 1451 1446 1441 1437 1432 1427